TimeCDT,TemperatureF,Dew PointF,Humidity,Sea Level PressureIn,VisibilityMPH,Wind Direction,Wind SpeedMPH,Gust SpeedMPH,PrecipitationIn,Events,Conditions,WindDirDegrees,DateUTC
12:56 AM,79.9,72.9,79,29.75,7.0,North,-9999.0,-,N/A,,Clear,0,2013-05-17 05:56:00
1:56 AM,77.9,72.0,82,29.74,7.0,North,-9999.0,-,N/A,,Clear,0,2013-05-17 06:56:00
2:56 AM,77.0,72.0,84,29.74,6.0,North,-9999.0,-,N/A,,Haze,0,2013-05-17 07:56:00
3:56 AM,75.9,72.0,87,29.74,6.0,North,-9999.0,-,N/A,,Clear,0,2013-05-17 08:56:00
4:56 AM,74.8,70.9,87,29.75,6.0,North,-9999.0,-,N/A,,Clear,0,2013-05-17 09:56:00
5:56 AM,73.4,71.6,94,29.78,8.0,ESE,13.8,-,N/A,,Clear,110,2013-05-17 10:56:00
6:56 AM,73.9,70.9,90,29.76,6.0,ESE,11.5,-,N/A,,Mist,120,2013-05-17 11:56:00
7:56 AM,74.8,70.9,87,29.80,5.0,ESE,9.2,-,N/A,,Scattered Clouds,120,2013-05-17 12:56:00
8:05 AM,75.2,71.6,89,29.84,6.0,North,-9999.0,-,N/A,,Scattered Clouds,0,2013-05-17 13:05:00
8:56 AM,77.0,71.6,83,29.86,2.5,ESE,11.5,-,N/A,,Haze,110,2013-05-17 13:56:00
9:05 AM,78.8,71.6,78,29.86,6.0,North,-9999.0,-,N/A,,Haze,0,2013-05-17 14:05:00
9:56 AM,81.9,72.0,72,29.83,9.0,ESE,11.5,-,N/A,,Scattered Clouds,110,2013-05-17 14:56:00
10:56 AM,83.8,72.0,67,29.83,9.0,ESE,13.8,-,N/A,,Scattered Clouds,110,2013-05-17 15:56:00
11:56 AM,88.9,72.9,59,29.83,10.0,SE,9.2,-,N/A,,Clear,130,2013-05-17 16:56:00
12:56 PM,92.8,70.9,49,29.81,10.0,ESE,9.2,-,N/A,,Clear,120,2013-05-17 17:56:00
1:56 PM,95.9,72.0,46,29.79,10.0,ESE,16.1,-,N/A,,Clear,120,2013-05-17 18:56:00
2:56 PM,97.9,70.9,42,29.77,10.0,East,11.5,-,N/A,,Clear,100,2013-05-17 19:56:00
3:56 PM,99.9,68.9,36,29.75,10.0,ESE,11.5,-,N/A,,Clear,110,2013-05-17 20:56:00
4:56 PM,100.9,68.0,34,29.73,10.0,ESE,16.1,-,N/A,,Clear,110,2013-05-17 21:56:00
5:56 PM,100.9,65.8,32,29.72,10.0,ESE,17.3,-,N/A,,Clear,120,2013-05-17 22:56:00
6:56 PM,99.0,66.9,35,29.73,10.0,ESE,17.3,-,N/A,,Clear,120,2013-05-17 23:56:00
7:56 PM,95.0,68.9,42,29.75,10.0,ESE,17.3,-,N/A,,Clear,120,2013-05-18 00:56:00
8:56 PM,90.9,70.9,52,29.77,10.0,ESE,15.0,-,N/A,,Clear,120,2013-05-18 01:56:00
9:56 PM,88.0,70.0,55,29.79,10.0,ESE,15.0,-,N/A,,Clear,110,2013-05-18 02:56:00
10:56 PM,84.9,68.0,57,29.81,10.0,ESE,13.8,-,N/A,,Clear,110,2013-05-18 03:56:00
11:56 PM,82.9,66.9,58,29.82,10.0,ESE,11.5,-,N/A,,Clear,120,2013-05-18 04:56:00